| Today | Week | Month | Year | Rain Year | ||
|---|---|---|---|---|---|---|
| Outside Temperature | °C |
13.6 12:10:34 AM 12.7 04:29:30 AM |
13.6 12:10:34 AM (Sunday) 12.7 04:29:30 AM (Sunday) |
24.5 09/01/2026 01:47:16 PM 11.4 09/02/2026 06:56:58 AM |
34.7 07/03/2026 04:08:55 PM -19.1 01/25/2026 07:07:26 AM |
34.7 07/03/2026 04:08:55 PM -19.1 01/25/2026 07:07:26 AM |
| Heat Index | °C |
13.4 12:14:34 AM 12.5 04:29:30 AM |
13.4 12:14:34 AM (Sunday) 12.5 04:29:30 AM (Sunday) |
24.3 09/01/2026 01:46:16 PM 11.1 09/02/2026 06:57:58 AM |
39.4 07/03/2026 04:06:55 PM -19.1 01/25/2026 07:07:26 AM |
39.4 07/03/2026 04:06:55 PM -19.1 01/25/2026 07:07:26 AM |
| Wind Chill | °C |
13.6 12:15:00 AM 12.7 04:30:00 AM |
13.6 12:15:00 AM (Sunday) 12.7 04:30:00 AM (Sunday) |
24.5 09/01/2026 01:50:00 PM 11.4 09/02/2026 07:00:00 AM |
34.7 07/03/2026 04:10:00 PM -24.7 01/25/2026 07:30:00 AM |
34.7 07/03/2026 04:10:00 PM -24.7 01/25/2026 07:30:00 AM |
| Dew Point | °C |
12.1 12:23:34 AM 11.8 02:19:32 AM |
12.1 12:23:34 AM (Sunday) 11.8 02:19:32 AM (Sunday) |
20.9 09/04/2026 03:23:05 PM 11.0 09/02/2026 06:57:58 AM |
23.7 07/03/2026 01:50:57 PM -21.2 01/25/2026 07:07:26 AM |
23.7 07/03/2026 01:50:57 PM -21.2 01/25/2026 07:07:26 AM |
| Outside Humidity | % |
95 04:29:30 AM 90 01:19:33 AM |
95 04:29:30 AM (Sunday) 90 01:19:33 AM (Sunday) |
98 09/04/2026 08:06:11 AM 48 09/01/2026 01:37:16 PM |
99 06/15/2026 11:13:55 PM 19 05/18/2026 03:08:35 PM |
99 06/15/2026 11:13:55 PM 19 05/18/2026 03:08:35 PM |
| Barometer | kPa |
100.65 04:22:30 AM 100.56 01:31:32 AM |
100.65 04:22:30 AM (Sunday) 100.56 01:31:32 AM (Sunday) |
102.05 09/02/2026 08:36:56 AM 100.01 09/05/2026 01:34:44 PM |
105.32 06/19/2026 09:58:34 AM 97.58 02/24/2026 03:29:57 AM |
105.32 06/19/2026 09:58:34 AM 97.58 02/24/2026 03:29:57 AM |
| Max Wind |
km/h ° |
19 005 12:34:35 AM |
19 005 12:34:35 AM (Sunday) |
79 054 09/04/2026 09:44:24 AM |
95 135 07/23/2026 04:43:58 PM |
95 135 07/23/2026 04:43:58 PM |
| Average Wind | km/h | 5 | 5 | 4 | 4 | 4 |
| RMS Wind | km/h | 5 | 5 | 7 | 5 | 5 |
|
Vector Average Vector Direction |
km/h ° |
5 092 |
5 092 |
4 107 |
0 203 |
0 203 |
| Rain | mm | 0.0 | 0.0 | 43.1 | 856.5 | 856.5 |
| Rain Rate | mm/h |
0.0 12:00:06 AM |
0.0 12:00:06 AM (Sunday) |
22.8 09/04/2026 09:49:12 AM |
35.1 07/30/2026 09:27:31 AM |
35.1 07/30/2026 09:27:31 AM |
| Evapotranspiration | mm | 0.0 | 0.0 | 9.4 | 534.8 | 534.8 |
| UV Index |
0.0 12:00:34 AM |
0.0 12:00:34 AM (Sunday) |
7.8 09/01/2026 01:41:16 PM |
14.0 06/19/2026 12:00:01 PM |
14.0 06/19/2026 12:00:01 PM |
|
| Radiation | W/m² |
0 12:00:34 AM 0 12:00:34 AM |
0 12:00:34 AM (Sunday) 0 12:00:34 AM (Sunday) |
1083 09/01/2026 01:41:16 PM 0 09/01/2026 12:00:31 AM |
1352 08/17/2026 01:17:13 PM 0 01/01/2026 12:00:06 AM |
1352 08/17/2026 01:17:13 PM 0 01/01/2026 12:00:06 AM |
| Latitude | 44° 42.13' N |
| Longitude | 063° 48.63' W |
| Altitude | 135 meters |
| WeeWX | 5.4.0 |